Retour au catalogue

ONEWEB-0254

ActifCommunicationsPO
NORAD 48972·PAYLOAD·🇬🇧 United Kingdom

Lancé Jul 1, 2021 depuis Vostochny Cosmodrome

Loading…

Prochains Passages (prochaines 24 heures)

TLE

FraisSource: CelesTrak SupGP

Époque: Sep 14, 2026, 14:44 UTC

1 48972C 21060F   26257.61403194 -.00000922  00000+0 -24151-2 0  2575
2 48972  87.9155 211.0177 0001976  71.0015 324.3284 13.16595454    13

Suivez ONEWEB-0254 en temps réel avec AllMySat

Download on the App Store